sat.trackr.live / text

‹ back to catalog

STARLINK-37988

NORAD 69748 · 2026-150K

PAYLOAD ACTIVE UNKNOWN

§ Identity

Operator
Country
US
Launch date
2026-07-02
Launch site
AFWTR
Launch vehicle
Mass (kg)
RCS (m²)

Purposes: comms

External: N2YO · Heavens-Above · Gunter

§ Orbital elements

Epoch: 2026-09-20T00:45:12.808800Z

Period
93.91 min
Inclination
97.2826°
Eccentricity
0.0001036
Mean motion
15.33451979 rev/d
Perigee alt
464.8 km
Apogee alt
466.2 km
Semi-major
6,843.7 km
B*
3.9929e-4
RAAN
101.9563°
Arg perigee
101.4512°
Mean anomaly
258.6847°
Rev number
1,366

§ Raw data

STARLINK-379881 69748U 26150K   26263.03139825  .00012840  00000+0  39929-3 0  99972 69748  97.2826 101.9563 0001036 101.4512 258.6847 15.33451979 13662

JSON: /api/v1/satellites/69748 · /tle

For live sub-satellite position, see the globe view (requires WebGL).

§ Visibility from observer

Set your observer location to see the next 7 days of passes ≥ 10°. The values pass through the URL so the page stays shareable.

No JS? Fill the form by hand. The geolocation button needs JavaScript.